owner,sensor,date,latitude,longitude,vertical_datum,direction_of_sea_water_velocity,sea_water_speed,upward_sea_water_velocity,qcFlag 
TABS,ioos:station:wmo:42043:1,2008-09-01T00:00:00Z,28.9818,-94.9186,2.0,245.4185137,24.54437818,-99999.0,'11111222,11111222,99999999' 
TABS,ioos:station:wmo:42043:1,2008-09-01T00:30:00Z,28.9818,-94.9186,2.0,238.4608948,22.38683765,-99999.0,'11111222,11111222,99999999' 
TABS,ioos:station:wmo:42043:1,2008-09-01T01:00:00Z,28.9818,-94.9186,2.0,246.9848785,18.415822,-99999.0,'11111222,11111222,99999999' 
TABS,ioos:station:wmo:42043:1,2008-09-01T01:30:00Z,28.9818,-94.9186,2.0,231.8332946,17.59050312,-99999.0,'11111222,11111222,99999999' 
TABS,ioos:station:wmo:42043:1,2008-09-01T02:00:00Z,28.9818,-94.9186,2.0,238.3627646,20.4371818,-99999.0,'11111222,11111222,99999999' 
TABS,ioos:station:wmo:42043:1,2008-09-01T02:30:00Z,28.9818,-94.9186,2.0,239.5001762,18.83630802,-99999.0,'11111222,11111222,99999999' 
TABS,ioos:station:wmo:42043:1,2008-09-01T03:00:00Z,28.9818,-94.9186,2.0,242.8842036,19.08795694,-99999.0,'11111222,11111222,99999999' 
TABS,ioos:station:wmo:42043:1,2008-09-01T03:30:00Z,28.9818,-94.9186,2.0,246.4601128,20.08104828,-99999.0,'11111222,11111222,99999999' 
TABS,ioos:station:wmo:42043:1,2008-09-01T04:00:00Z,28.9818,-94.9186,2.0,240.1943502,17.6439508,-99999.0,'11111222,11111222,99999999' 
TABS,ioos:station:wmo:42043:1,2008-09-01T04:30:00Z,28.9818,-94.9186,2.0,238.4714561,15.14577499,-99999.0,'11111222,11111222,99999999' 
TABS,ioos:station:wmo:42043:1,2008-09-01T05:00:00Z,28.9818,-94.9186,2.0,239.4259001,16.37677929,-99999.0,'11111222,11111222,99999999' 
TABS,ioos:station:wmo:42043:1,2008-09-01T05:30:00Z,28.9818,-94.9186,2.0,243.7942755,17.09731265,-99999.0,'11111222,11111222,99999999' 
TABS,ioos:station:wmo:42043:1,2008-09-01T06:00:00Z,28.9818,-94.9186,2.0,254.7633619,15.98175209,-99999.0,'11111222,11111222,99999999' 
TABS,ioos:station:wmo:42043:1,2008-09-01T06:30:00Z,28.9818,-94.9186,2.0,258.2123374,16.00755447,-99999.0,'11111222,11111222,99999999' 
TABS,ioos:station:wmo:42043:1,2008-09-01T07:00:00Z,28.9818,-94.9186,2.0,230.7133321,13.13968417,-99999.0,'11111222,11111222,99999999' 
TABS,ioos:station:wmo:42043:1,2008-09-01T07:30:00Z,28.9818,-94.9186,2.0,239.1369454,16.53077433,-99999.0,'11111222,11111222,99999999' 
TABS,ioos:station:wmo:42043:1,2008-09-01T08:00:00Z,28.9818,-94.9186,2.0,245.2244964,18.18363275,-99999.0,'11111222,11111222,99999999' 
TABS,ioos:station:wmo:42043:1,2008-09-01T08:30:00Z,28.9818,-94.9186,2.0,252.1191877,20.25849945,-99999.0,'11111222,11111222,99999999' 
TABS,ioos:station:wmo:42043:1,2008-09-01T09:00:00Z,28.9818,-94.9186,2.0,242.7812111,18.82444421,-99999.0,'11111222,11111222,99999999' 
TABS,ioos:station:wmo:42043:1,2008-09-01T09:30:00Z,28.9818,-94.9186,2.0,231.0757409,18.97219017,-99999.0,'11111222,11111222,99999999' 
TABS,ioos:station:wmo:42043:1,2008-09-01T10:00:00Z,28.9818,-94.9186,2.0,243.3022678,23.23728039,-99999.0,'11111222,11111222,99999999' 
TABS,ioos:station:wmo:42043:1,2008-09-01T10:30:00Z,28.9818,-94.9186,2.0,246.0505382,26.06393677,-99999.0,'11111222,11111222,99999999' 
TABS,ioos:station:wmo:42043:1,2008-09-01T11:00:00Z,28.9818,-94.9186,2.0,239.6395049,27.83748013,-99999.0,'11111222,11111222,99999999' 
TABS,ioos:station:wmo:42043:1,2008-09-01T11:30:00Z,28.9818,-94.9186,2.0,233.1125073,26.55600121,-99999.0,'11111222,11111222,99999999' 
TABS,ioos:station:wmo:42043:1,2008-09-01T12:00:00Z,28.9818,-94.9186,2.0,238.2068273,32.00155621,-99999.0,'11111222,11111222,99999999' 
TABS,ioos:station:wmo:42043:1,2008-09-01T12:30:00Z,28.9818,-94.9186,2.0,235.8611988,31.89623802,-99999.0,'11111222,11111222,99999999' 
TABS,ioos:station:wmo:42043:1,2008-09-01T13:00:00Z,28.9818,-94.9186,2.0,232.1217567,34.33331327,-99999.0,'11111222,11111222,99999999' 
TABS,ioos:station:wmo:42043:1,2008-09-01T13:30:00Z,28.9818,-94.9186,2.0,237.7984049,32.55802512,-99999.0,'11111222,11111222,99999999' 
TABS,ioos:station:wmo:42043:1,2008-09-01T14:00:00Z,28.9818,-94.9186,2.0,240.987969,31.11418005,-99999.0,'11111222,11111222,99999999' 
TABS,ioos:station:wmo:42043:1,2008-09-01T14:30:00Z,28.9818,-94.9186,2.0,234.6156701,27.30318113,-99999.0,'11111222,11111222,99999999' 
TABS,ioos:station:wmo:42043:1,2008-09-01T15:00:00Z,28.9818,-94.9186,2.0,231.8054865,27.86544276,-99999.0,'11111222,11111222,99999999' 
TABS,ioos:station:wmo:42043:1,2008-09-01T15:30:00Z,28.9818,-94.9186,2.0,241.6703265,23.09611439,-99999.0,'11111222,11111222,99999999' 
TABS,ioos:station:wmo:42043:1,2008-09-01T16:00:00Z,28.9818,-94.9186,2.0,247.0449712,21.58959935,-99999.0,'11111222,11111222,99999999' 
TABS,ioos:station:wmo:42043:1,2008-09-01T16:30:00Z,28.9818,-94.9186,2.0,242.5005047,14.81368286,-99999.0,'11111222,11111222,99999999' 
TABS,ioos:station:wmo:42043:1,2008-09-01T17:00:00Z,28.9818,-94.9186,2.0,238.7833693,14.00814049,-99999.0,'11111222,11111222,99999999' 
TABS,ioos:station:wmo:42043:1,2008-09-01T17:30:00Z,28.9818,-94.9186,2.0,288.639104,10.66959231,-99999.0,'11111222,11111222,99999999' 
TABS,ioos:station:wmo:42043:1,2008-09-01T18:00:00Z,28.9818,-94.9186,2.0,300.8008119,9.627969672,-99999.0,'11133222,11111222,99999999' 
TABS,ioos:station:wmo:42043:1,2008-09-01T18:30:00Z,28.9818,-94.9186,2.0,354.6443979,3.856838083,-99999.0,'11133222,11111222,99999999' 
TABS,ioos:station:wmo:42043:1,2008-09-01T19:00:00Z,28.9818,-94.9186,2.0,24.57455194,6.179749186,-99999.0,'11133222,11111222,99999999' 
TABS,ioos:station:wmo:42043:1,2008-09-01T19:30:00Z,28.9818,-94.9186,2.0,42.08680956,11.13010332,-99999.0,'11111222,11111222,99999999' 
TABS,ioos:station:wmo:42043:1,2008-09-01T20:00:00Z,28.9818,-94.9186,2.0,40.35572577,14.67114174,-99999.0,'11111222,11111222,99999999' 
TABS,ioos:station:wmo:42043:1,2008-09-01T20:30:00Z,28.9818,-94.9186,2.0,42.61323839,18.16719296,-99999.0,'11111222,11111222,99999999' 
TABS,ioos:station:wmo:42043:1,2008-09-01T21:00:00Z,28.9818,-94.9186,2.0,46.26191982,20.87178239,-99999.0,'11111222,11111222,99999999' 
TABS,ioos:station:wmo:42043:1,2008-09-01T21:30:00Z,28.9818,-94.9186,2.0,47.65919152,24.0817026,-99999.0,'11111222,11111222,99999999' 
TABS,ioos:station:wmo:42043:1,2008-09-01T22:00:00Z,28.9818,-94.9186,2.0,50.89140063,28.10745453,-99999.0,'11111222,11111222,99999999' 
TABS,ioos:station:wmo:42043:1,2008-09-01T22:30:00Z,28.9818,-94.9186,2.0,60.16213817,30.54979542,-99999.0,'11111222,11111222,99999999' 
TABS,ioos:station:wmo:42043:1,2008-09-01T23:00:00Z,28.9818,-94.9186,2.0,57.70192766,29.45772564,-99999.0,'11111222,11111222,99999999' 
TABS,ioos:station:wmo:42043:1,2008-09-01T23:30:00Z,28.9818,-94.9186,2.0,60.16317881,27.03340526,-99999.0,'11111222,11111222,99999999' 
TABS,ioos:station:wmo:42043:1,2008-09-02T00:00:00Z,28.9818,-94.9186,2.0,62.83380247,31.53923905,-99999.0,'11111222,11111222,99999999' 
TABS,ioos:station:wmo:42043:1,2008-09-02T00:30:00Z,28.9818,-94.9186,2.0,63.44317039,31.40333899,-99999.0,'11111222,11111222,99999999' 
TABS,ioos:station:wmo:42043:1,2008-09-02T01:00:00Z,28.9818,-94.9186,2.0,62.96369161,39.68707724,-99999.0,'11111222,11111222,99999999' 
TABS,ioos:station:wmo:42043:1,2008-09-02T01:30:00Z,28.9818,-94.9186,2.0,59.33064391,45.73756115,-99999.0,'11111222,11111222,99999999' 
TABS,ioos:station:wmo:42043:1,2008-09-02T02:00:00Z,28.9818,-94.9186,2.0,60.84729217,47.05012752,-99999.0,'11111222,11111222,99999999' 
TABS,ioos:station:wmo:42043:1,2008-09-02T02:30:00Z,28.9818,-94.9186,2.0,61.4758502,49.83978431,-99999.0,'11111222,11111222,99999999' 
TABS,ioos:station:wmo:42043:1,2008-09-02T03:00:00Z,28.9818,-94.9186,2.0,60.8601309,50.8682396,-99999.0,'11111222,11111222,99999999' 
TABS,ioos:station:wmo:42043:1,2008-09-02T03:30:00Z,28.9818,-94.9186,2.0,58.26074372,52.96018504,-99999.0,'11111222,11111222,99999999' 
TABS,ioos:station:wmo:42043:1,2008-09-02T04:00:00Z,28.9818,-94.9186,2.0,59.47876492,55.74384719,-99999.0,'11111222,11111222,99999999' 
TABS,ioos:station:wmo:42043:1,2008-09-02T04:30:00Z,28.9818,-94.9186,2.0,60.72672562,55.46276949,-99999.0,'11111222,11111222,99999999' 
TABS,ioos:station:wmo:42043:1,2008-09-02T05:00:00Z,28.9818,-94.9186,2.0,60.45438684,57.79557423,-99999.0,'11111222,11111222,99999999' 
TABS,ioos:station:wmo:42043:1,2008-09-02T05:30:00Z,28.9818,-94.9186,2.0,59.41027279,59.38436495,-99999.0,'11111222,11111222,99999999' 
TABS,ioos:station:wmo:42043:1,2008-09-02T06:00:00Z,28.9818,-94.9186,2.0,57.00658053,59.31570197,-99999.0,'11111222,11111222,99999999' 
TABS,ioos:station:wmo:42043:1,2008-09-02T06:30:00Z,28.9818,-94.9186,2.0,57.25815269,61.68001297,-99999.0,'11111222,11111222,99999999' 
TABS,ioos:station:wmo:42043:1,2008-09-02T07:00:00Z,28.9818,-94.9186,2.0,56.82423834,62.11505615,-99999.0,'11111222,11111222,99999999' 
TABS,ioos:station:wmo:42043:1,2008-09-02T07:30:00Z,28.9818,-94.9186,2.0,56.54093129,58.49361076,-99999.0,'11111222,11111222,99999999' 
TABS,ioos:station:wmo:42043:1,2008-09-02T08:00:00Z,28.9818,-94.9186,2.0,56.66331204,60.72141138,-99999.0,'11111222,11111222,99999999' 
TABS,ioos:station:wmo:42043:1,2008-09-02T08:30:00Z,28.9818,-94.9186,2.0,53.58204372,59.08983754,-99999.0,'11111222,11111222,99999999' 
TABS,ioos:station:wmo:42043:1,2008-09-02T09:00:00Z,28.9818,-94.9186,2.0,55.01228286,55.59799367,-99999.0,'11111222,11111222,99999999' 
TABS,ioos:station:wmo:42043:1,2008-09-02T09:30:00Z,28.9818,-94.9186,2.0,54.31958068,58.29255956,-99999.0,'11111222,11111222,99999999' 
TABS,ioos:station:wmo:42043:1,2008-09-02T10:00:00Z,28.9818,-94.9186,2.0,54.49906748,54.50155411,-99999.0,'11111222,11111222,99999999' 
TABS,ioos:station:wmo:42043:1,2008-09-02T10:30:00Z,28.9818,-94.9186,2.0,57.78589093,50.61099485,-99999.0,'11111222,11111222,99999999' 
TABS,ioos:station:wmo:42043:1,2008-09-02T11:00:00Z,28.9818,-94.9186,2.0,58.42458219,46.90410643,-99999.0,'11111222,11111222,99999999' 
TABS,ioos:station:wmo:42043:1,2008-09-02T11:30:00Z,28.9818,-94.9186,2.0,62.92928401,43.573718,-99999.0,'11111222,11111222,99999999' 
TABS,ioos:station:wmo:42043:1,2008-09-02T12:00:00Z,28.9818,-94.9186,2.0,59.10564875,18.42410649,-99999.0,'11111222,11111222,99999999' 
TABS,ioos:station:wmo:42043:1,2008-09-02T12:30:00Z,28.9818,-94.9186,2.0,60.26524954,21.19009438,-99999.0,'11111222,11111222,99999999' 
TABS,ioos:station:wmo:42043:1,2008-09-02T13:00:00Z,28.9818,-94.9186,2.0,61.46324147,22.35602827,-99999.0,'11111222,11111222,99999999' 
TABS,ioos:station:wmo:42043:1,2008-09-02T13:30:00Z,28.9818,-94.9186,2.0,65.01036257,21.63542697,-99999.0,'11111222,11111222,99999999' 
TABS,ioos:station:wmo:42043:1,2008-09-02T14:00:00Z,28.9818,-94.9186,2.0,63.88310691,16.58318727,-99999.0,'11111222,11111222,99999999' 
TABS,ioos:station:wmo:42043:1,2008-09-02T14:30:00Z,28.9818,-94.9186,2.0,67.20440417,17.55085183,-99999.0,'11111222,11111222,99999999' 
TABS,ioos:station:wmo:42043:1,2008-09-02T15:00:00Z,28.9818,-94.9186,2.0,72.01775927,11.2074618,-99999.0,'11111222,11111222,99999999' 
TABS,ioos:station:wmo:42043:1,2008-09-02T15:30:00Z,28.9818,-94.9186,2.0,69.15251718,18.40495857,-99999.0,'11111222,11111222,99999999' 
TABS,ioos:station:wmo:42043:1,2008-09-02T16:00:00Z,28.9818,-94.9186,2.0,61.36394634,17.81968574,-99999.0,'11111222,11111222,99999999' 
TABS,ioos:station:wmo:42043:1,2008-09-02T16:30:00Z,28.9818,-94.9186,2.0,63.36688298,18.80534498,-99999.0,'11111222,11111222,99999999' 
TABS,ioos:station:wmo:42043:1,2008-09-02T17:00:00Z,28.9818,-94.9186,2.0,65.73126862,23.55129084,-99999.0,'11111222,11111222,99999999' 
TABS,ioos:station:wmo:42043:1,2008-09-02T17:30:00Z,28.9818,-94.9186,2.0,65.89782186,22.89612413,-99999.0,'11111222,11111222,99999999' 
TABS,ioos:station:wmo:42043:1,2008-09-02T18:00:00Z,28.9818,-94.9186,2.0,59.40297452,27.60326249,-99999.0,'11111222,11111222,99999999' 
TABS,ioos:station:wmo:42043:1,2008-09-02T18:30:00Z,28.9818,-94.9186,2.0,57.19815289,26.83961997,-99999.0,'11111222,11111222,99999999' 
TABS,ioos:station:wmo:42043:1,2008-09-02T19:00:00Z,28.9818,-94.9186,2.0,60.93707707,19.90650396,-99999.0,'11111222,11111222,99999999' 
TABS,ioos:station:wmo:42043:1,2008-09-02T19:30:00Z,28.9818,-94.9186,2.0,52.16151392,33.12473396,-99999.0,'11111222,11111222,99999999' 
TABS,ioos:station:wmo:42043:1,2008-09-02T20:00:00Z,28.9818,-94.9186,2.0,49.22072583,23.73122205,-99999.0,'11111222,11111222,99999999' 
TABS,ioos:station:wmo:42043:1,2008-09-02T20:30:00Z,28.9818,-94.9186,2.0,54.37280882,24.5317692,-99999.0,'11111222,11111222,99999999' 
TABS,ioos:station:wmo:42043:1,2008-09-02T21:00:00Z,28.9818,-94.9186,2.0,59.50462139,26.22815472,-99999.0,'11111222,11111222,99999999' 
TABS,ioos:station:wmo:42043:1,2008-09-02T21:30:00Z,28.9818,-94.9186,2.0,52.33921321,23.47023647,-99999.0,'11111222,11111222,99999999' 
TABS,ioos:station:wmo:42043:1,2008-09-02T22:00:00Z,28.9818,-94.9186,2.0,55.23451302,14.92406446,-99999.0,'11111222,11111222,99999999' 
TABS,ioos:station:wmo:42043:1,2008-09-02T22:30:00Z,28.9818,-94.9186,2.0,55.30017987,15.26494677,-99999.0,'11111222,11111222,99999999' 
TABS,ioos:station:wmo:42043:1,2008-09-02T23:00:00Z,28.9818,-94.9186,2.0,53.19572546,13.98800915,-99999.0,'11111222,11111222,99999999' 
TABS,ioos:station:wmo:42043:1,2008-09-02T23:30:00Z,28.9818,-94.9186,2.0,62.81394426,16.50315121,-99999.0,'11111222,11111222,99999999' 
TABS,ioos:station:wmo:42043:1,2008-09-03T00:00:00Z,28.9818,-94.9186,2.0,58.14456599,12.56207785,-99999.0,'11111222,11111222,99999999' 
TABS,ioos:station:wmo:42043:1,2008-09-03T00:30:00Z,28.9818,-94.9186,2.0,56.21499369,16.72423391,-99999.0,'11111222,11111222,99999999' 
TABS,ioos:station:wmo:42043:1,2008-09-03T01:00:00Z,28.9818,-94.9186,2.0,58.69908134,16.89976331,-99999.0,'11111222,11111222,99999999' 
TABS,ioos:station:wmo:42043:1,2008-09-03T01:30:00Z,28.9818,-94.9186,2.0,62.0910781,15.25417976,-99999.0,'11111222,11111222,99999999' 
TABS,ioos:station:wmo:42043:1,2008-09-03T02:00:00Z,28.9818,-94.9186,2.0,57.06535527,15.35820953,-99999.0,'11111222,11111222,99999999' 
TABS,ioos:station:wmo:42043:1,2008-09-03T02:30:00Z,28.9818,-94.9186,2.0,60.40822959,13.46649917,-99999.0,'11111222,11111222,99999999' 
TABS,ioos:station:wmo:42043:1,2008-09-03T03:00:00Z,28.9818,-94.9186,2.0,53.88403514,15.20131573,-99999.0,'11111222,11111222,99999999' 
TABS,ioos:station:wmo:42043:1,2008-09-03T03:30:00Z,28.9818,-94.9186,2.0,52.04172194,17.47715366,-99999.0,'11111222,11111222,99999999' 
TABS,ioos:station:wmo:42043:1,2008-09-03T04:00:00Z,28.9818,-94.9186,2.0,57.30459388,16.45766083,-99999.0,'11111222,11111222,99999999' 
TABS,ioos:station:wmo:42043:1,2008-09-03T04:30:00Z,28.9818,-94.9186,2.0,54.98770136,25.3593257,-99999.0,'11111222,11111222,99999999' 
TABS,ioos:station:wmo:42043:1,2008-09-03T05:00:00Z,28.9818,-94.9186,2.0,57.42116859,24.88575697,-99999.0,'11111222,11111222,99999999' 
TABS,ioos:station:wmo:42043:1,2008-09-03T05:30:00Z,28.9818,-94.9186,2.0,59.62478239,22.20852314,-99999.0,'11111222,11111222,99999999' 
TABS,ioos:station:wmo:42043:1,2008-09-03T06:00:00Z,28.9818,-94.9186,2.0,57.34447649,30.26382824,-99999.0,'11111222,11111222,99999999' 
TABS,ioos:station:wmo:42043:1,2008-09-03T06:30:00Z,28.9818,-94.9186,2.0,65.26288577,30.56471331,-99999.0,'11111222,11111222,99999999' 
TABS,ioos:station:wmo:42043:1,2008-09-03T07:00:00Z,28.9818,-94.9186,2.0,60.63015162,33.3573755,-99999.0,'11111222,11111222,99999999' 
TABS,ioos:station:wmo:42043:1,2008-09-03T07:30:00Z,28.9818,-94.9186,2.0,56.17542852,25.97668185,-99999.0,'11111222,11111222,99999999' 
TABS,ioos:station:wmo:42043:1,2008-09-03T08:00:00Z,28.9818,-94.9186,2.0,68.19470121,27.00195919,-99999.0,'11111222,11111222,99999999' 
TABS,ioos:station:wmo:42043:1,2008-09-03T08:30:00Z,28.9818,-94.9186,2.0,67.53006532,27.05393872,-99999.0,'11111222,11111222,99999999' 
TABS,ioos:station:wmo:42043:1,2008-09-03T09:00:00Z,28.9818,-94.9186,2.0,63.20438568,25.55399186,-99999.0,'11111222,11111222,99999999' 
TABS,ioos:station:wmo:42043:1,2008-09-03T09:30:00Z,28.9818,-94.9186,2.0,64.52982929,25.04406117,-99999.0,'11111222,11111222,99999999' 
TABS,ioos:station:wmo:42043:1,2008-09-03T10:00:00Z,28.9818,-94.9186,2.0,71.59820358,21.88928962,-99999.0,'11111222,11111222,99999999' 
TABS,ioos:station:wmo:42043:1,2008-09-03T10:30:00Z,28.9818,-94.9186,2.0,65.04993795,23.32698223,-99999.0,'11111222,11111222,99999999' 
TABS,ioos:station:wmo:42043:1,2008-09-03T11:00:00Z,28.9818,-94.9186,2.0,63.00003192,22.97402446,-99999.0,'11111222,11111222,99999999' 
TABS,ioos:station:wmo:42043:1,2008-09-03T11:30:00Z,28.9818,-94.9186,2.0,79.41134116,19.31896995,-99999.0,'11111222,11111222,99999999' 
TABS,ioos:station:wmo:42043:1,2008-09-03T12:00:00Z,28.9818,-94.9186,2.0,79.62486008,11.66065607,-99999.0,'11111222,11111222,99999999' 
TABS,ioos:station:wmo:42043:1,2008-09-03T12:30:00Z,28.9818,-94.9186,2.0,76.37722039,12.10041735,-99999.0,'11111222,11111222,99999999' 
TABS,ioos:station:wmo:42043:1,2008-09-03T13:00:00Z,28.9818,-94.9186,2.0,76.15933687,10.6595028,-99999.0,'11111222,11111222,99999999' 
TABS,ioos:station:wmo:42043:1,2008-09-03T13:30:00Z,28.9818,-94.9186,2.0,70.40633692,12.82249586,-99999.0,'11111222,11111222,99999999' 
TABS,ioos:station:wmo:42043:1,2008-09-03T14:00:00Z,28.9818,-94.9186,2.0,72.1063326,14.0601138,-99999.0,'11111222,11111222,99999999' 
TABS,ioos:station:wmo:42043:1,2008-09-03T14:30:00Z,28.9818,-94.9186,2.0,73.58900353,15.04285212,-99999.0,'11111222,11111222,99999999' 
TABS,ioos:station:wmo:42043:1,2008-09-03T15:00:00Z,28.9818,-94.9186,2.0,70.82103682,11.68876384,-99999.0,'11111222,11111222,99999999' 
TABS,ioos:station:wmo:42043:1,2008-09-03T15:30:00Z,28.9818,-94.9186,2.0,79.76620792,15.87251713,-99999.0,'11111222,11111222,99999999' 
TABS,ioos:station:wmo:42043:1,2008-09-03T16:00:00Z,28.9818,-94.9186,2.0,77.63695233,13.1243476,-99999.0,'11111222,11111222,99999999' 
TABS,ioos:station:wmo:42043:1,2008-09-03T16:30:00Z,28.9818,-94.9186,2.0,69.48431498,16.63506237,-99999.0,'11111222,11111222,99999999' 
TABS,ioos:station:wmo:42043:1,2008-09-03T17:00:00Z,28.9818,-94.9186,2.0,64.52687438,15.02015979,-99999.0,'11111222,11111222,99999999' 
TABS,ioos:station:wmo:42043:1,2008-09-03T17:30:00Z,28.9818,-94.9186,2.0,79.22908415,16.05281595,-99999.0,'11111222,11111222,99999999' 
TABS,ioos:station:wmo:42043:1,2008-09-03T18:00:00Z,28.9818,-94.9186,2.0,77.48805097,14.77079551,-99999.0,'11111222,11111222,99999999' 
TABS,ioos:station:wmo:42043:1,2008-09-03T18:30:00Z,28.9818,-94.9186,2.0,69.08466543,13.80995655,-99999.0,'11111222,11111222,99999999' 
TABS,ioos:station:wmo:42043:1,2008-09-03T19:00:00Z,28.9818,-94.9186,2.0,79.28100629,18.06521796,-99999.0,'11111222,11111222,99999999' 
TABS,ioos:station:wmo:42043:1,2008-09-03T19:30:00Z,28.9818,-94.9186,2.0,78.99360768,16.28963474,-99999.0,'11111222,11111222,99999999' 
TABS,ioos:station:wmo:42043:1,2008-09-03T20:00:00Z,28.9818,-94.9186,2.0,64.27733971,19.46931175,-99999.0,'11111222,11111222,99999999' 
TABS,ioos:station:wmo:42043:1,2008-09-03T20:30:00Z,28.9818,-94.9186,2.0,67.96820658,23.08583115,-99999.0,'11111222,11111222,99999999' 
TABS,ioos:station:wmo:42043:1,2008-09-03T21:00:00Z,28.9818,-94.9186,2.0,72.22004072,18.53532034,-99999.0,'11111222,11111222,99999999' 
TABS,ioos:station:wmo:42043:1,2008-09-03T21:30:00Z,28.9818,-94.9186,2.0,73.89507421,21.70167966,-99999.0,'11111222,11111222,99999999' 
TABS,ioos:station:wmo:42043:1,2008-09-03T22:00:00Z,28.9818,-94.9186,2.0,73.84122985,21.02043292,-99999.0,'11111222,11111222,99999999' 
TABS,ioos:station:wmo:42043:1,2008-09-03T22:30:00Z,28.9818,-94.9186,2.0,75.10018095,17.53974344,-99999.0,'11111222,11111222,99999999' 
TABS,ioos:station:wmo:42043:1,2008-09-03T23:00:00Z,28.9818,-94.9186,2.0,70.98511479,17.49461631,-99999.0,'11111222,11111222,99999999' 
TABS,ioos:station:wmo:42043:1,2008-09-03T23:30:00Z,28.9818,-94.9186,2.0,66.92038354,15.8158939,-99999.0,'11111222,11111222,99999999' 
TABS,ioos:station:wmo:42043:1,2008-09-04T00:00:00Z,28.9818,-94.9186,2.0,68.42190067,18.10914686,-99999.0,'11111222,11111222,99999999' 
TABS,ioos:station:wmo:42043:1,2008-09-04T00:30:00Z,28.9818,-94.9186,2.0,73.31437842,16.16044554,-99999.0,'11111222,11111222,99999999' 
TABS,ioos:station:wmo:42043:1,2008-09-04T01:00:00Z,28.9818,-94.9186,2.0,79.43446075,18.86992581,-99999.0,'11111222,11111222,99999999' 
TABS,ioos:station:wmo:42043:1,2008-09-04T01:30:00Z,28.9818,-94.9186,2.0,78.1956022,16.81562369,-99999.0,'11111222,11111222,99999999' 
TABS,ioos:station:wmo:42043:1,2008-09-04T02:00:00Z,28.9818,-94.9186,2.0,86.69395281,18.38059031,-99999.0,'11111222,11111222,99999999' 
TABS,ioos:station:wmo:42043:1,2008-09-04T02:30:00Z,28.9818,-94.9186,2.0,80.6313393,16.09468235,-99999.0,'11111222,11111222,99999999' 
TABS,ioos:station:wmo:42043:1,2008-09-04T03:00:00Z,28.9818,-94.9186,2.0,80.88653571,17.55156118,-99999.0,'11111222,11111222,99999999' 
TABS,ioos:station:wmo:42043:1,2008-09-04T03:30:00Z,28.9818,-94.9186,2.0,80.36303341,19.41396662,-99999.0,'11111222,11111222,99999999' 
TABS,ioos:station:wmo:42043:1,2008-09-04T04:00:00Z,28.9818,-94.9186,2.0,77.69257068,18.24941095,-99999.0,'11111222,11111222,99999999' 
TABS,ioos:station:wmo:42043:1,2008-09-04T04:30:00Z,28.9818,-94.9186,2.0,79.08748702,19.22768837,-99999.0,'11111222,11111222,99999999' 
TABS,ioos:station:wmo:42043:1,2008-09-04T05:00:00Z,28.9818,-94.9186,2.0,85.00414646,20.89939712,-99999.0,'11111222,11111222,99999999' 
TABS,ioos:station:wmo:42043:1,2008-09-04T05:30:00Z,28.9818,-94.9186,2.0,82.87140066,19.74260874,-99999.0,'11111222,11111222,99999999' 
TABS,ioos:station:wmo:42043:1,2008-09-04T06:00:00Z,28.9818,-94.9186,2.0,78.92143449,21.85732143,-99999.0,'11111222,11111222,99999999' 
TABS,ioos:station:wmo:42043:1,2008-09-04T06:30:00Z,28.9818,-94.9186,2.0,82.10218008,21.97847356,-99999.0,'11111222,11111222,99999999' 
TABS,ioos:station:wmo:42043:1,2008-09-04T07:00:00Z,28.9818,-94.9186,2.0,87.59499637,25.02204028,-99999.0,'11111222,11111222,99999999' 
TABS,ioos:station:wmo:42043:1,2008-09-04T07:30:00Z,28.9818,-94.9186,2.0,85.12809312,24.60891099,-99999.0,'11111222,11111222,99999999' 
TABS,ioos:station:wmo:42043:1,2008-09-04T08:00:00Z,28.9818,-94.9186,2.0,81.89938215,21.99950909,-99999.0,'11111222,11111222,99999999' 
TABS,ioos:station:wmo:42043:1,2008-09-04T08:30:00Z,28.9818,-94.9186,2.0,85.63492809,24.83202972,-99999.0,'11111222,11111222,99999999' 
TABS,ioos:station:wmo:42043:1,2008-09-04T09:00:00Z,28.9818,-94.9186,2.0,91.71122813,24.11075279,-99999.0,'11111222,11111222,99999999' 
TABS,ioos:station:wmo:42043:1,2008-09-04T09:30:00Z,28.9818,-94.9186,2.0,93.49578811,22.63211214,-99999.0,'11111222,11111222,99999999' 
TABS,ioos:station:wmo:42043:1,2008-09-04T10:00:00Z,28.9818,-94.9186,2.0,90.42147761,21.7505885,-99999.0,'11111222,11111222,99999999' 
TABS,ioos:station:wmo:42043:1,2008-09-04T10:30:00Z,28.9818,-94.9186,2.0,102.0501468,20.64490736,-99999.0,'11111222,11111222,99999999' 
TABS,ioos:station:wmo:42043:1,2008-09-04T11:00:00Z,28.9818,-94.9186,2.0,113.3370249,13.58106402,-99999.0,'11111222,11111222,99999999' 
TABS,ioos:station:wmo:42043:1,2008-09-04T11:30:00Z,28.9818,-94.9186,2.0,107.834391,16.2929494,-99999.0,'11111222,11111222,99999999' 
TABS,ioos:station:wmo:42043:1,2008-09-04T12:00:00Z,28.9818,-94.9186,2.0,116.7185963,16.68112706,-99999.0,'11111222,11111222,99999999' 
TABS,ioos:station:wmo:42043:1,2008-09-04T12:30:00Z,28.9818,-94.9186,2.0,110.6229078,20.04448054,-99999.0,'11111222,11111222,99999999' 
TABS,ioos:station:wmo:42043:1,2008-09-04T13:00:00Z,28.9818,-94.9186,2.0,106.9164468,19.45167602,-99999.0,'11111222,11111222,99999999' 
TABS,ioos:station:wmo:42043:1,2008-09-04T13:30:00Z,28.9818,-94.9186,2.0,112.2450042,18.22654383,-99999.0,'11111222,11111222,99999999' 
TABS,ioos:station:wmo:42043:1,2008-09-04T14:00:00Z,28.9818,-94.9186,2.0,109.0184248,18.32002456,-99999.0,'11111222,11111222,99999999' 
TABS,ioos:station:wmo:42043:1,2008-09-04T14:30:00Z,28.9818,-94.9186,2.0,112.7868002,14.25236822,-99999.0,'11111222,11111222,99999999' 
TABS,ioos:station:wmo:42043:1,2008-09-04T15:00:00Z,28.9818,-94.9186,2.0,118.0036184,7.83765271,-99999.0,'11133222,11111222,99999999' 
TABS,ioos:station:wmo:42043:1,2008-09-04T15:30:00Z,28.9818,-94.9186,2.0,114.0956875,14.84338573,-99999.0,'11111222,11111222,99999999' 